Flag for Brazil Weather past 2 weeks in Cuiabá, Mato Grosso, Brazil

Now
84 °F

Clear.


Feels Like: 84 °F
Forecast: 74 / 101 °F
Wind: 2 mph from South

Location: Cuiaba Aeroporto

Current Time: Aug 31, 2015 at 11:58:10 PM

Latest Report: Aug 31, 2015 at 11:00 PM


Visibility: 10 mi

Pressure: 29.98 "Hg

Humidity: 43%

Dew point: 59 °F

Location of CuiabáLocation

Historic Weather in Cuiabá — Graph

°F

Cuiabá temperature yesterday

Maximum temperature yesterday: 102 °F (at 1:00 PM)
Minimum temperature yesterday: 73 °F (at 6:00 AM)
Average temperature yesterday: 89 °F

Past Weeks' High & Low Weather Summary

 TemperatureHumidityPressure
High104 °F (Aug 26, 1:00 PM)94% (Aug 29, 6:00 AM)30.07 "Hg (Aug 29, 6:00 AM)
Low68 °F (Aug 17, 6:00 AM)13% (Aug 23, 2:00 PM)29.33 "Hg (Aug 31, 8:00 AM)
Average84 °F47%29.91 "Hg
* Reported Aug 16 11:00 PM — Aug 31 11:00 PM, Cuiabá, Weather by CustomWeather, © 2015

Note: Actual official high and low records may vary slightly from our data, if they occured in-between our weather recording intervals... More about our weather records

Advertising

Cuiabá weather history for previous 24 hours

 ConditionsComfort  
Time TempWeatherWind HumidityBarometerVisibility
11:00 PM
Mon, Aug 31
84 °FClear.2 mph43%29.98 "Hg10 mi
10:00 PM88 °FClear.3 mph35%29.95 "Hg10 mi
9:00 PM90 °FClear.3 mph31%29.95 "Hg10 mi
8:00 PM90 °FClear.6 mph31%29.92 "Hg10 mi
7:00 PM91 °FClear.10 mph32%29.89 "Hg10 mi
6:00 PM95 °FClear.6 mph26%29.86 "Hg10 mi
5:00 PM99 °FSunny.5 mph22%29.86 "Hg10 mi
4:00 PM104 °FScattered clouds.3 mph15%29.86 "HgN/A
3:00 PM102 °FScattered clouds.3 mph16%29.86 "HgN/A
2:00 PM104 °FSunny.5 mph16%29.89 "Hg10 mi
1:00 PM100 °FScattered clouds.6 mph18%29.92 "HgN/A
12:00 PM100 °FPassing clouds.7 mph21%29.95 "HgN/A
11:00 AM99 °FSunny.5 mph24%29.98 "Hg10 mi
10:00 AM95 °FSunny.5 mph30%30.01 "Hg10 mi
9:00 AM91 °FSunny.3 mph36%30.01 "Hg10 mi
8:00 AM86 °FSunny.No wind43%29.33 "Hg10 mi
7:00 AM81 °FSunny.No wind58%29.98 "Hg10 mi
6:00 AM75 °FSunny.3 mph57%29.89 "Hg10 mi
5:00 AM77 °FClear.No wind54%29.89 "Hg10 mi
4:00 AM79 °FClear.2 mph51%29.92 "Hg10 mi
3:00 AM79 °FClear.5 mph51%29.92 "Hg10 mi
2:00 AM81 °FClear.8 mph48%29.92 "Hg10 mi
1:00 AM82 °FClear.5 mph48%29.92 "Hg10 mi
12:00 AM84 °FClear.2 mph48%29.95 "Hg10 mi
11:00 PM
Sun, Aug 30
84 °FClear.No wind45%29.95 "Hg10 mi
Weather by CustomWeather, © 2015

See weather overviewHow to use our weather pages